Flag for U.S.A. Weather past 2 weeks in Monterey, California, U.S.A.

Now
63 °F

Sunny.


Feels Like: 63 °F
Forecast: 52 / 61 °F
Wind: 9 mph from West

Location: Monterey Peninsula Airport


UV Index: 5 (Moderate)

Visibility: 10 mi


Pressure: 30.15 "Hg

Humidity: 56%

Dew point: 47 °F

Location of MontereyLocation

Historic Weather in Monterey

°F

Monterey temperature yesterday

Maximum temperature yesterday: 62 °F (at 3:54 PM)
Minimum temperature yesterday: 48 °F (at 4:54 AM)
Average temperature yesterday: 55 °F

Past Weeks' High & Low Weather Summary

 TemperatureHumidityPressure
High67 °F (Apr 20, 3:54 PM)94% (Apr 14, 7:01 AM)30.20 "Hg (Apr 14, 7:01 AM)
Low45 °F (Apr 10, 5:54 AM)39% (Apr 20, 7:54 PM)29.86 "Hg (Apr 17, 2:54 AM)
Average56 °F74%30.06 "Hg
* Reported Apr 9 11:01 AM — Apr 24 11:54 AM, Monterey, Weather by CustomWeather, © 2014

Note: Actual official high and low records may vary slightly from our data, if they occured in-between our weather recording intervals... More about our weather records

Advertising

Historic Weather Conditions — Data for Previous 24 hours

 ConditionsComfort  
Time TempWeatherWind HumidityBarometerVisibility
11:54 AM
Apr 24
63 °FSunny.9 mph56%30.15 "Hg10 mi
10:54 AM62 °FSunny.6 mph58%30.16 "Hg10 mi
9:54 AM58 °FSunny.No wind75%30.16 "Hg10 mi
8:54 AM54 °FLow clouds.3 mph86%30.17 "Hg10 mi
7:54 AM54 °FLow clouds.5 mph86%30.16 "Hg10 mi
6:54 AM52 °FPassing clouds.5 mph86%30.15 "Hg8 mi
5:54 AM48 °FClear.No wind74%30.12 "Hg10 mi
4:54 AM48 °FClear.3 mph74%30.13 "Hg10 mi
3:54 AM49 °FClear.No wind71%30.12 "Hg10 mi
2:54 AM50 °FClear.3 mph68%30.13 "Hg10 mi
1:54 AM53 °FClear.No wind66%30.14 "Hg10 mi
12:54 AM53 °FClear.No wind74%30.15 "Hg10 mi
11:54 PM
Apr 23
54 °FClear.5 mph74%30.16 "Hg10 mi
10:54 PM55 °FClear.No wind69%30.16 "Hg10 mi
9:54 PM56 °FClear.No wind67%30.16 "Hg10 mi
8:54 PM57 °FClear.No wind60%30.15 "Hg10 mi
7:54 PM56 °FSunny.5 mph65%30.14 "Hg10 mi
6:54 PM58 °FSunny.9 mph58%30.14 "Hg10 mi
5:54 PM59 °FSunny.8 mph56%30.14 "Hg10 mi
4:54 PM60 °FSunny.9 mph52%30.15 "Hg10 mi
3:54 PM62 °FSunny.10 mph48%30.16 "Hg10 mi
2:54 PM61 °FSunny.10 mph54%30.17 "Hg10 mi
1:54 PM60 °FSunny.16 mph53%30.18 "Hg10 mi
Weather by CustomWeather, © 2014

See weather overview